Regional Weather Roundup
Issued by NWS

Home | Current Version | Previous Version | Graphics & Text | Print | Product List | Glossary On
Versions: 1 2 3 4 5 6 7 8 9 10 11 12 13 14 15 16 17 18 19 20 21 22 23 24 25 26 27 28 29 30 31 32 33 34 35 36 37 38 39 40 41 42 43 44 45 46 47 48 49 50
000
ASUS43 KDTX 310310
RWRMI
MICHIGAN HOURLY REGIONAL WEATHER ROUNDUP
NATIONAL WEATHER SERVICE DETROIT/PONTIAC MI
1100 PM EDT SAT AUG 30 2014

NOTE: "FAIR" INDICATES FEW OR NO CLOUDS BELOW 12,000 FEET WITH NO
SIGNIFICANT WEATHER AND/OR OBSTRUCTION TO VISIBILITY.

MIZ047>049-052>055-059>063-066>070-074>076-081>083-310400-
SOUTHEAST LOWER MICHIGAN

CITY           SKY/WX    TMP DP  RH WIND       PRES   REMARKS
ADRIAN         CLOUDY    75  68  78 SW17G25   29.95S
ALMA           PTCLDY    72  66  83 SW7       29.86S
BAD AXE        CLOUDY    70  69  97 SW7       29.85F
CARO           CLOUDY    70  69  98 SW6       29.85F
DETROIT CITY   CLOUDY    80  68  66 SW18      29.91S
DETROIT        CLOUDY    76  68  76 S18       29.92F
FLINT          CLOUDY    74  68  81 S6        29.88F
GROSSE ILE     CLOUDY    77  70  78 SW13G20   29.91F
HILLSDALE      CLOUDY    76  70  81 SW8G20    29.96R
HOWELL         HVY RAIN  71  69  93 SW12      29.91S

CITY           SKY/WX    TMP DP  RH WIND       PRES   REMARKS
JACKSON        CLOUDY    73  68  84 SW8       29.93R THUNDER
LAMBERTVILLE   CLOUDY    77  68  73 SW12G18   29.95S
LANSING        CLOUDY    73  68  84 SW12      29.90S
LAPEER         CLOUDY    73  68  86 SW8       29.89S
MASON          LGT RAIN  72  67  85 SW7       29.91R
MONROE         CLOUDY    77  68  73 SW12G20   29.92S
MT. CLEMENS    CLOUDY    79  67  68 SW20      29.89F
PONTIAC        TSTM      74  67  78 W17G23    29.92R
PORT HOPE        N/A     71  67  87 VRB5      29.82F
PORT HURON     CLOUDY    75  70  83 S9        29.88F
TRI CITIES     MOCLDY    74  69  85 SW6       29.85F
TROY           CLOUDY    78  69  73 S10G20    29.92S
SAGINAW HB     CLOUDY    72  72 100 SW8       29.85S
$$
MIZ043>046-050>051-056>058-064>065-071>073-077>080-310400-
SOUTHWEST LOWER MICHIGAN

CITY           SKY/WX    TMP DP  RH WIND       PRES   REMARKS
BATTLE CREEK   CLOUDY    71  68  90 SW13      29.92R
BENTON HARBOR  MOCLDY    73  67  81 SW12      29.90R
BIG RAPIDS     PTCLDY    69  67  93 W7        29.85S
COLDWATER      CLOUDY    71  68  90 CALM      29.95R
FREMONT        FAIR      69  67  94 W6        29.86S
HOLLAND        MOCLDY    74  67  78 W8        29.89S
GRAND RAPIDS   MOCLDY    74  70  87 SW12      29.89R
IONIA          FAIR      73  70  93 SW8       29.87S
KALAMAZOO      CLOUDY    71  68  90 SW10      29.92R
LUDINGTON      CLOUDY    69  67  93 NW5       29.86R
MARSHALL       LGT RAIN  70  68  92 SW10G16   29.92R
MOUNT PLEASANT CLEAR     72  65  79 SW7       29.84S
MUSKEGON       PTCLDY    70  66  87 SW7       29.87S
SOUTH HAVEN    MOCLDY    74  69  86 SW5       29.90R
$$
MIZ016>042-310400-
NORTHERN LOWER MICHIGAN

CITY           SKY/WX    TMP DP  RH WIND       PRES   REMARKS
ALPENA         LGT RAIN  69  66  90 SW7       29.78S
BEAVER ISLAND  CLOUDY    62  61  96 W8        29.80R
BELLAIRE       CLOUDY    66  63  90 W7        29.81S
CADILLAC       CLOUDY    68  67  97 SW7       29.84S
CHARLEVOIX     CLOUDY    64  64  99 W13G18    29.83R
FRANKFORT      CLOUDY    65  62  87 CALM      29.85R
GAYLORD        CLOUDY    67  63  87 W16G24    29.82R
GRAYLING       CLOUDY    69  69 100 W7        29.83S
HARBOR SPRINGS RAIN      66  65  96 SW12G17   29.78R VSB 1
HOUGHTON LAKE  CLOUDY    70  66  87 W9        29.84S
MANISTEE       CLOUDY    64  63  94 N5        29.86R
OSCODA         PTCLDY    69  69  99 SW7       29.80S
PELLSTON       CLOUDY    67  66  97 SW8       29.78R FOG
ROGERS CITY    MOCLDY    68  68 100 SW6       29.78R
TRAVERSE CITY  CLOUDY    67  62  84 W10       29.82R
$$
MIZ007>008-015-310400-
EASTERN UPPER MICHIGAN

CITY           SKY/WX    TMP DP  RH WIND       PRES   REMARKS
KINROSS        CLOUDY    66  66 100 SW3       29.75S
MACKINAC ISLAN FOG       65  65 100 SW9       29.76R VSB 1/4
NEWBERRY       CLOUDY    61  61  99 NW8       29.78R
S. S. MARIE    CLOUDY    69  67  93 CALM      29.73S FOG
MUNISING         N/A     61  58  90 N12       29.83R
$$
MIZ004>006-011>014-085-310400-
CENTRAL UPPER MICHIGAN

CITY           SKY/WX    TMP DP  RH WIND       PRES   REMARKS
MANISTIQUE     CLOUDY    59  58  99 NW8       29.81R
ESCANABA       CLOUDY    61  55  82 NW7       29.85R
MENOMINEE      MOCLDY    63  57  82 NW5       29.87R
SAWYER-GWINN   CLOUDY    58  57  96 N12G17    29.87R FOG
$$
MIZ001>003-009>011-084-310400-
WESTERN UPPER MICHIGAN

CITY           SKY/WX    TMP DP  RH WIND       PRES   REMARKS
IRON MOUNTAIN  CLOUDY    60  57  89 NW7       29.88R
HOUGHTON       CLOUDY    58  55  90 NW7       29.90R
COPPER HARBOR    N/A     58  54  86 N8        29.88R
$$

ABBREVIATIONS USED IN REMARKS
   TC - TEMPERATURE IN CELSIUS
  WCI - WIND CHILL INDEX
   HX - HEAT INDEX
  VSB - VISIBILITY




USA.gov is the U.S. government's official web portal to all federal, state and local government web resources and services.